{"data":{"norad_id":66336,"intl_designator":"2025-253T","name":"STARLINK-35404","alt_names":[],"object_type":"PAYLOAD","status":"ACTIVE","operator":null,"country":"US","launch_date":"2025-11-06","launch_site_code":"AFETR","launch_vehicle":null,"mission":null,"orbit_class":"UNKNOWN","rcs_meters":null,"size_class":null,"mass_kg":null,"dimensions":null,"purposes":["comms"],"wikipedia_slug":null,"has_3d_model":false,"image_url":null,"decayed_at":null,"tle_current":{"epoch":"2026-05-25T01:11:00.421152Z","epoch_age_seconds":71117,"freshness":"FRESH","line1":"1 66336U 25253T   26145.04931043  .00009779  00000+0  36424-3 0  9996","line2":"2 66336  42.9989 141.1795 0001154 241.1206 118.9530 15.27596470 31920","mean_motion":15.2759647,"eccentricity":0.0001154,"inclination_deg":42.9989,"raan_deg":141.1795,"arg_perigee_deg":241.1206,"mean_anomaly_deg":118.953,"bstar":0.00036424,"rev_number":3192,"period_min":94.265732363207,"perigee_km":482.20800419336,"apogee_km":483.79155456204,"semimajor_km":6861.1367793777,"source":"CELESTRAK","updated_at":"2026-05-25T13:38:21.170377Z"}}}